Location: Doverdale
(52.2833°N, 2.2000°W)
Time: 03:19:16
(UTC+00:00)

Cosmos 1980 Rocket - Pass Details

Date: 29 October 2020
Orbit: 831 x 848 km, 71.0° (Epoch: 27 November)

Event Time Altitude Azimuth Distance (km) Brightness Sun altitude
Rises 20:58:17 0° 242° (WSW) 3,381 5.7 -38.3°
Reaches altitude 10° 21:00:58 10° 252° (WSW) 2,448 5.0 -38.6°
Enters shadow 21:03:15 22° 269° (W) 1,765 4.2 -38.9°
